Estación Meteorológica de la Universidad de Murcia
Estación Meteorológica de la Universidad de Murcia
Universidad de Murcia
 

Temperatura y Humedad del sueloTemperatura y Humedad del suelo

 

Temperatura del suelo máxima: 23,5 ºC a las 17:58:00 del día 23/10/2021
Temperatura del suelo mínima: 13,4 ºC a las 09:01:00 del día 23/10/2021
Humedad del suelo máxima: 71,3 % a las 00:00:00 del día 23/10/2021
Humedad del suelo mínima: 67 % a las 23:47:00 del día 23/10/2021

||Temperatura del suelo máxima últimos meses|| ---- ||Temperatura del suelo mínima últimos meses||

----||Humedad del suelo máxima últimos meses|| ---- ||Humedad del suelo mínima últimos meses||


Temperatura del suelo máxima

  • 1 - 23,5 ºC del día 23/10/2021
  • 2 - 20,9 ºC del día 22/10/2021
  • 3 - 29,3 ºC del día 21/10/2021
  • 4 - 27,3 ºC del día 20/10/2021
  • 5 - 27,6 ºC del día 19/10/2021
  • 6 - 27,1 ºC del día 18/10/2021
  • 7 - 27,7 ºC del día 17/10/2021
  • 8 - 28,3 ºC del día 16/10/2021
  • 9 - 26,6 ºC del día 15/10/2021
  • 10 - 26,7 ºC del día 14/10/2021
  • 11 - 27,3 ºC del día 13/10/2021
  • 12 - 26 ºC del día 12/10/2021
  • 13 - 27 ºC del día 11/10/2021
  • 14 - 27,4 ºC del día 10/10/2021
  • 15 - 27,6 ºC del día 09/10/2021
  • 16 - 27,5 ºC del día 08/10/2021
  • 17 - 27,8 ºC del día 07/10/2021
  • 18 - 29,4 ºC del día 06/10/2021
  • 19 - 27,2 ºC del día 05/10/2021
  • 20 - 23,5 ºC del día 04/10/2021
  • 21 - 29,2 ºC del día 03/10/2021
  • 22 - 29 ºC del día 02/10/2021
  • 23 - 28,4 ºC del día 01/10/2021
  • 24 - 29,1 ºC del día 30/09/2021
  • 25 - 30,8 ºC del día 29/09/2021
  • 26 - 29,7 ºC del día 28/09/2021
  • 27 - 31,1 ºC del día 27/09/2021
  • 28 - 28,9 ºC del día 26/09/2021
  • 29 - 30,8 ºC del día 25/09/2021
  • 30 - 30,3 ºC del día 24/09/2021
  • 31 - 30 ºC del día 23/09/2021
  • 32 - 26,6 ºC del día 22/09/2021
  • 33 - 26 ºC del día 21/09/2021
  • 34 - 30,8 ºC del día 20/09/2021
  • 35 - 30,7 ºC del día 19/09/2021
  • 36 - 32,4 ºC del día 18/09/2021
  • 37 - 31,8 ºC del día 17/09/2021
  • 38 - 31,9 ºC del día 16/09/2021
  • 39 - 32,5 ºC del día 15/09/2021
  • 40 - 29,1 ºC del día 14/09/2021
  • 41 - 26,8 ºC del día 13/09/2021
  • 42 - 33,3 ºC del día 12/09/2021
  • 43 - 32,8 ºC del día 11/09/2021
  • 44 - 33 ºC del día 10/09/2021
  • 45 - 32,1 ºC del día 09/09/2021
  • 46 - 33,3 ºC del día 08/09/2021
  • 47 - 32,6 ºC del día 07/09/2021
  • 48 - 31,7 ºC del día 06/09/2021
  • 49 - 32,5 ºC del día 05/09/2021
  • 50 - 32,3 ºC del día 04/09/2021
  • 51 - 32,1 ºC del día 03/09/2021
  • 52 - 31,2 ºC del día 02/09/2021
  • 53 - 29,6 ºC del día 01/09/2021
  • 54 - 31,6 ºC del día 31/08/2021
  • 55 - 33,1 ºC del día 30/08/2021
  • 56 - 34,1 ºC del día 29/08/2021
  • 57 - 35,3 ºC del día 28/08/2021
  • 58 - 35,4 ºC del día 27/08/2021
  • 59 - 33,8 ºC del día 26/08/2021

||Volver al inicio de la página||


Temperatura del suelo mínima

  • 1 - 13,4 ºC del día 23/10/2021
  • 2 - 15,3 ºC del día 22/10/2021
  • 3 - 14,8 ºC del día 21/10/2021
  • 4 - 14,5 ºC del día 20/10/2021
  • 5 - 16,3 ºC del día 19/10/2021
  • 6 - 16,5 ºC del día 18/10/2021
  • 7 - 18,9 ºC del día 17/10/2021
  • 8 - 14,1 ºC del día 16/10/2021
  • 9 - 13,6 ºC del día 15/10/2021
  • 10 - 14,4 ºC del día 14/10/2021
  • 11 - 14,7 ºC del día 13/10/2021
  • 12 - 16,3 ºC del día 12/10/2021
  • 13 - 16,9 ºC del día 11/10/2021
  • 14 - 16,5 ºC del día 10/10/2021
  • 15 - 18,2 ºC del día 09/10/2021
  • 16 - 17,4 ºC del día 08/10/2021
  • 17 - 19,6 ºC del día 07/10/2021
  • 18 - 16,9 ºC del día 06/10/2021
  • 19 - 12,5 ºC del día 05/10/2021
  • 20 - 13,8 ºC del día 04/10/2021
  • 21 - 18,3 ºC del día 03/10/2021
  • 22 - 19,4 ºC del día 02/10/2021
  • 23 - 18,8 ºC del día 01/10/2021
  • 24 - 20,1 ºC del día 30/09/2021
  • 25 - 17,7 ºC del día 29/09/2021
  • 26 - 16,4 ºC del día 28/09/2021
  • 27 - 18 ºC del día 27/09/2021
  • 28 - 18 ºC del día 26/09/2021
  • 29 - 23,2 ºC del día 25/09/2021
  • 30 - 21,7 ºC del día 24/09/2021
  • 31 - 19,1 ºC del día 23/09/2021
  • 32 - 18,2 ºC del día 22/09/2021
  • 33 - 17,6 ºC del día 21/09/2021
  • 34 - 18,9 ºC del día 20/09/2021
  • 35 - 18,6 ºC del día 19/09/2021
  • 36 - 19 ºC del día 18/09/2021
  • 37 - 19,3 ºC del día 17/09/2021
  • 38 - 19,5 ºC del día 16/09/2021
  • 39 - 20,1 ºC del día 15/09/2021
  • 40 - 21,3 ºC del día 14/09/2021
  • 41 - 21,8 ºC del día 13/09/2021
  • 42 - 19,4 ºC del día 12/09/2021
  • 43 - 20,4 ºC del día 11/09/2021
  • 44 - 20,3 ºC del día 10/09/2021
  • 45 - 19,4 ºC del día 09/09/2021
  • 46 - 20,3 ºC del día 08/09/2021
  • 47 - 20,8 ºC del día 07/09/2021
  • 48 - 21,3 ºC del día 06/09/2021
  • 49 - 21,2 ºC del día 05/09/2021
  • 50 - 21,9 ºC del día 04/09/2021
  • 51 - 22,9 ºC del día 03/09/2021
  • 52 - 20,9 ºC del día 02/09/2021
  • 53 - 22 ºC del día 01/09/2021
  • 54 - 23,4 ºC del día 31/08/2021
  • 55 - 23,6 ºC del día 30/08/2021
  • 56 - 22,6 ºC del día 29/08/2021
  • 57 - 20,8 ºC del día 28/08/2021
  • 58 - 20 ºC del día 27/08/2021
  • 59 - 21,1 ºC del día 26/08/2021

||Volver al inicio de la página||


Humedad del suelo máxima

  • 1 - 71,3 % del día 23/10/2021
  • 2 - 75,2 % del día 22/10/2021
  • 3 - 54,7 % del día 21/10/2021
  • 4 - 55,7 % del día 20/10/2021
  • 5 - 55,5 % del día 19/10/2021
  • 6 - 56 % del día 18/10/2021
  • 7 - 56,5 % del día 17/10/2021
  • 8 - 56,6 % del día 16/10/2021
  • 9 - 57,2 % del día 15/10/2021
  • 10 - 57,8 % del día 14/10/2021
  • 11 - 58,4 % del día 13/10/2021
  • 12 - 59,1 % del día 12/10/2021
  • 13 - 59,6 % del día 11/10/2021
  • 14 - 60,7 % del día 10/10/2021
  • 15 - 61,3 % del día 09/10/2021
  • 16 - 62,3 % del día 08/10/2021
  • 17 - 63,2 % del día 07/10/2021
  • 18 - 64,7 % del día 06/10/2021
  • 19 - 67,2 % del día 05/10/2021
  • 20 - 74,7 % del día 04/10/2021
  • 21 - 75,1 % del día 03/10/2021
  • 22 - 56,3 % del día 02/10/2021
  • 23 - 56,8 % del día 01/10/2021
  • 24 - 57,3 % del día 30/09/2021
  • 25 - 58,2 % del día 29/09/2021
  • 26 - 58,4 % del día 28/09/2021
  • 27 - 60,3 % del día 27/09/2021
  • 28 - 60,4 % del día 26/09/2021
  • 29 - 61,5 % del día 25/09/2021
  • 30 - 63,1 % del día 24/09/2021
  • 31 - 64,6 % del día 23/09/2021
  • 32 - 67,2 % del día 22/09/2021
  • 33 - 75,1 % del día 21/09/2021
  • 34 - 52,5 % del día 20/09/2021
  • 35 - 52,6 % del día 19/09/2021
  • 36 - 52,6 % del día 18/09/2021
  • 37 - 52,9 % del día 17/09/2021
  • 38 - 52,7 % del día 16/09/2021
  • 39 - 53,2 % del día 15/09/2021
  • 40 - 52,4 % del día 14/09/2021
  • 41 - 53,4 % del día 13/09/2021
  • 42 - 53,1 % del día 12/09/2021
  • 43 - 53,2 % del día 11/09/2021
  • 44 - 53,8 % del día 10/09/2021
  • 45 - 53,2 % del día 09/09/2021
  • 46 - 53,4 % del día 08/09/2021
  • 47 - 53,6 % del día 07/09/2021
  • 48 - 53,4 % del día 06/09/2021
  • 49 - 53,7 % del día 05/09/2021
  • 50 - 53,7 % del día 04/09/2021
  • 51 - 53,6 % del día 03/09/2021
  • 52 - 53,3 % del día 02/09/2021
  • 53 - 53,2 % del día 01/09/2021
  • 54 - 53,8 % del día 31/08/2021
  • 55 - 53,8 % del día 30/08/2021
  • 56 - 54 % del día 29/08/2021
  • 57 - 54,6 % del día 28/08/2021
  • 58 - 54,1 % del día 27/08/2021
  • 59 - 54,1 % del día 26/08/2021

||Volver al inicio de la página||


Humedad del suelo mínima

  • 1 - 67 % del día 23/10/2021
  • 2 - 53 % del día 22/10/2021
  • 3 - 53,3 % del día 21/10/2021
  • 4 - 53,6 % del día 20/10/2021
  • 5 - 54 % del día 19/10/2021
  • 6 - 54,3 % del día 18/10/2021
  • 7 - 54,8 % del día 17/10/2021
  • 8 - 55,1 % del día 16/10/2021
  • 9 - 55,6 % del día 15/10/2021
  • 10 - 56 % del día 14/10/2021
  • 11 - 56,6 % del día 13/10/2021
  • 12 - 57,2 % del día 12/10/2021
  • 13 - 58 % del día 11/10/2021
  • 14 - 58,7 % del día 10/10/2021
  • 15 - 59,5 % del día 09/10/2021
  • 16 - 60,3 % del día 08/10/2021
  • 17 - 61,1 % del día 07/10/2021
  • 18 - 62,1 % del día 06/10/2021
  • 19 - 63,6 % del día 05/10/2021
  • 20 - 66 % del día 04/10/2021
  • 21 - 54,2 % del día 03/10/2021
  • 22 - 54,5 % del día 02/10/2021
  • 23 - 55 % del día 01/10/2021
  • 24 - 55,7 % del día 30/09/2021
  • 25 - 56 % del día 29/09/2021
  • 26 - 56 % del día 28/09/2021
  • 27 - 56,6 % del día 27/09/2021
  • 28 - 58,1 % del día 26/09/2021
  • 29 - 59,2 % del día 25/09/2021
  • 30 - 60,4 % del día 24/09/2021
  • 31 - 61,7 % del día 23/09/2021
  • 32 - 63,5 % del día 22/09/2021
  • 33 - 50,4 % del día 21/09/2021
  • 34 - 50,4 % del día 20/09/2021
  • 35 - 50,4 % del día 19/09/2021
  • 36 - 50,4 % del día 18/09/2021
  • 37 - 50,5 % del día 17/09/2021
  • 38 - 50,5 % del día 16/09/2021
  • 39 - 50,4 % del día 15/09/2021
  • 40 - 50,5 % del día 14/09/2021
  • 41 - 51 % del día 13/09/2021
  • 42 - 50,7 % del día 12/09/2021
  • 43 - 51 % del día 11/09/2021
  • 44 - 51,1 % del día 10/09/2021
  • 45 - 51,1 % del día 09/09/2021
  • 46 - 51,2 % del día 08/09/2021
  • 47 - 51,2 % del día 07/09/2021
  • 48 - 51,3 % del día 06/09/2021
  • 49 - 51,3 % del día 05/09/2021
  • 50 - 51,3 % del día 04/09/2021
  • 51 - 51,3 % del día 03/09/2021
  • 52 - 51,3 % del día 02/09/2021
  • 53 - 47,3 % del día 01/09/2021
  • 54 - 51,7 % del día 31/08/2021
  • 55 - 51,7 % del día 30/08/2021
  • 56 - 51,8 % del día 29/08/2021
  • 57 - 51,8 % del día 28/08/2021
  • 58 - 51,7 % del día 27/08/2021
  • 59 - 51,8 % del día 26/08/2021

 

|| Temperatura Ambiente|| Humedad relativa|| Velocidad y dirección del viento|| Precipitación|| Radiación Solar Global y PAR|| Presión atmosférica|| Más información|| Volver a la página principal|| Volver al inicio de la página||


Estación Meteorológica de la Universidad de Murcia
http://estacion.um.es/
Informacion actualizada a: 25/10/2021 a las 12:08:00